Theta_e
310 310 311 311 311 311 311 311 311 311 311 311 311 311 311 313 311 307 302 309 310 318 313 307 305 309 310 310 313 313 302 299 300 301 304 310 309 310 312 309 310 313 313 322 328
308 309 310 310 310 310 311 311 311 310 311 310 311 311 312 312 306 303 316 323 320 317 305 303 301 304 304 306 308 306 302 300 306 307 307 309 310 310 308 307 308 310 316 321 324
308 308 309 309 310 310 310 309 309 309 309 309 309 310 312 310 302 305 316 315 318 315 314 309 306 303 301 305 305 304 300 305 307 309 310 309 309 312 307 305 309 309 312 316 319
308 308 308 309 308 308 308 308 308 308 309 309 309 310 311 306 290 308 314 313 312 309 309 311 307 302 298 299 304 300 306 307 307 309 309 308 310 308 309 308 313 313 315 315 315
307 307 307 308 308 308 308 308 308 308 308 308 309 309 305 297 298 308 318 316 309 306 303 305 304 302 298 301 302 302 304 307 309 309 309 310 307 307 308 312 314 314 314 315 315
306 307 306 306 307 307 307 307 306 306 307 308 308 308 300 291 305 307 306 306 305 304 301 301 300 304 302 302 301 303 304 306 308 308 309 306 307 308 309 312 311 312 311 312 313
305 305 306 306 306 306 306 306 307 306 307 308 308 305 297 294 305 307 306 304 305 304 300 303 302 299 302 300 304 304 300 304 305 307 306 308 303 303 309 311 309 310 311 312 313
305 305 305 306 306 306 305 306 307 306 307 308 308 303 294 306 308 305 306 304 305 305 303 304 305 301 300 302 301 298 299 294 302 304 305 305 298 306 310 309 308 309 310 312 313
304 305 305 305 306 306 306 306 307 307 308 310 304 303 296 309 301 302 302 300 303 304 303 304 302 299 300 294 293 296 292 294 297 303 303 302 298 305 309 309 308 309 310 311 312
305 305 305 305 306 306 306 306 308 309 308 305 303 296 299 295 300 304 305 302 298 298 299 298 295 292 293 293 285 290 291 294 295 300 302 300 299 303 306 306 306 309 311 311 311
304 304 304 304 304 305 304 304 297 297 298 292 292 292 294 300 305 301 304 302 299 295 288 295 289 286 288 294 296 294 294 294 298 302 300 300 300 302 306 306 306 309 310 311 313
303 304 304 304 304 304 305 298 297 297 289 296 296 296 299 302 295 299 304 296 295 287 290 289 287 290 292 293 292 293 292 294 299 302 299 299 299 303 305 306 306 308 309 310 312
303 303 303 304 304 304 302 300 304 303 290 293 298 297 298 299 294 297 300 297 291 287 286 284 290 292 291 289 290 291 291 293 294 296 296 297 295 296 303 306 307 309 311 311 311
303 302 303 304 301 303 300 303 305 304 285 290 293 295 297 298 294 302 301 295 289 285 288 289 294 290 289 288 290 289 295 295 295 292 286 296 284 293 298 300 303 304 306 309 311
302 303 303 303 302 300 301 305 305 300 276 291 292 300 297 295 295 297 303 293 288 288 289 287 291 290 288 288 292 291 296 295 294 291 289 290 286 291 296 296 299 303 305 307 308
302 302 303 304 303 305 305 305 301 285 277 287 292 290 290 294 294 297 298 301 295 290 291 290 296 295 292 294 294 296 294 294 293 290 282 287 287 288 293 297 299 302 304 307 310
303 303 302 303 300 306 306 300 285 280 289 285 285 289 289 288 290 292 292 291 285 283 284 288 293 297 297 291 294 294 290 282 280 280 280 290 287 290 297 300 301 302 303 310 312
303 303 305 303 306 306 302 292 280 285 284 288 287 288 286 288 288 289 290 288 290 288 285 281 281 291 297 293 290 291 289 283 276 278 281 289 285 290 299 301 303 305 309 310 310
302 303 303 307 307 305 295 284 281 283 286 285 287 284 285 287 288 288 286 288 291 293 286 285 285 294 296 297 295 290 287 293 287 289 285 287 290 297 299 300 303 305 307 306 308
299 300 300 304 306 302 292 283 284 288 289 288 282 286 282 284 284 287 286 289 289 293 296 291 285 293 293 297 296 293 295 286 287 279 279 285 287 288 294 298 302 303 304 306 308
299 295 302 305 305 296 286 285 287 290 290 287 285 284 285 284 286 286 286 289 291 292 296 293 289 289 294 291 290 291 289 290 290 288 281 280 284 297 297 300 299 302 305 307 309
300 292 302 304 292 293 288 287 289 289 292 290 290 288 286 287 286 285 285 288 293 294 289 293 290 284 288 294 295 294 291 291 285 283 286 286 285 300 301 302 303 305 308 308 308
295 294 302 302 288 288 290 288 290 288 290 289 288 289 290 287 283 287 288 292 294 293 290 292 287 281 285 291 293 289 290 291 292 291 285 283 285 300 301 299 305 304 304 304 303
295 289 295 296 293 288 287 286 286 292 289 290 289 291 289 286 289 286 287 291 294 294 297 296 289 285 280 284 290 288 288 290 289 286 286 287 289 296 298 299 300 300 301 300 300
296 291 292 288 289 288 288 287 286 285 290 291 288 288 286 283 285 285 288 289 291 295 294 293 285 287 288 289 287 290 290 291 287 289 286 289 290 295 297 296 298 299 299 298 297
287 293 294 291 289 287 285 286 285 287 287 286 286 287 288 285 286 284 287 287 286 290 290 292 285 288 286 289 290 287 290 290 290 291 291 291 291 298 299 299 296 295 295 294 294
297 298 293 290 289 287 287 286 286 287 288 290 288 287 286 289 291 292 293 293 291 289 288 289 287 285 282 288 288 284 289 290 291 293 292 288 294 298 294 293 292 292 292 291 291
Wind_Speed
7 7 8 8 8 9 10 12 13 14 15 17 18 20 21 22 26 21 18 13 5 6 5 11 14 15 16 20 21 21 17 20 26 24 22 20 22 8 5 11 15 14 9 11 7
5 6 8 8 9 10 11 12 13 14 15 17 18 20 20 22 26 24 9 10 7 5 9 16 18 18 16 17 19 21 19 28 24 22 20 23 22 11 7 13 14 10 6 10 8
4 5 6 8 9 10 11 12 14 15 16 17 18 19 19 20 18 4 4 9 7 5 11 17 20 22 24 22 23 25 30 23 25 24 25 25 20 17 11 13 12 12 10 9 9
4 5 7 8 10 11 12 12 14 15 16 16 17 17 17 13 7 7 5 4 2 8 13 13 17 22 25 27 25 30 29 27 28 26 24 22 21 22 13 15 13 14 16 16 13
5 6 7 9 10 12 13 14 15 16 17 17 16 16 12 8 15 22 11 12 13 18 16 18 18 20 28 25 25 33 28 28 27 25 24 23 25 19 18 16 11 15 12 7 10
4 6 8 9 11 12 14 15 16 18 19 18 17 15 13 18 14 16 21 18 19 22 24 24 22 22 26 25 29 25 28 29 26 27 25 25 24 20 20 15 16 15 14 14 10
4 6 8 10 12 14 17 19 20 20 20 20 16 11 15 25 17 18 20 21 24 25 24 25 27 27 21 24 25 25 28 28 28 28 26 23 25 30 19 18 19 20 18 17 16
5 7 9 11 14 17 19 20 22 23 22 21 14 10 11 15 15 15 14 16 20 24 29 23 24 30 29 27 25 25 26 26 32 26 23 23 32 25 21 21 23 22 19 17 17
6 8 10 13 15 17 20 24 25 24 19 16 10 14 18 5 12 22 25 21 20 20 21 25 23 22 22 27 21 25 26 33 25 25 25 24 34 23 20 22 25 25 22 20 20
7 9 11 13 15 19 22 29 26 11 15 15 11 11 16 16 23 23 19 23 23 23 19 27 25 21 20 21 27 36 28 21 25 23 25 28 29 21 20 19 18 18 12 18 20
7 9 12 15 17 19 16 12 9 2 11 10 20 23 24 23 19 26 27 25 21 26 24 22 25 29 33 33 31 25 26 27 26 25 25 26 27 24 23 17 17 14 19 12 9
8 10 12 14 17 20 12 10 10 2 14 20 22 20 23 14 28 29 20 21 24 23 23 17 30 30 34 31 28 30 28 27 19 17 2 5 17 16 14 19 17 15 11 13 11
9 11 13 16 18 10 6 11 9 11 7 9 6 8 7 15 26 26 25 19 23 24 20 24 25 32 33 31 32 29 27 23 25 6 15 10 15 21 16 16 15 16 18 18 13
9 11 13 17 9 9 5 10 8 7 5 3 3 5 11 22 16 30 15 9 3 10 22 23 26 34 31 34 31 26 27 26 20 6 5 12 9 18 15 17 17 17 15 9 10
8 10 13 10 9 5 8 9 6 1 6 9 12 6 17 19 28 13 10 3 9 16 16 8 19 26 28 33 32 23 19 22 10 5 8 13 11 18 20 22 20 27 25 16 10
10 10 14 7 5 9 10 8 4 5 1 9 17 24 22 21 19 21 17 23 16 12 21 23 28 23 33 25 28 21 4 7 5 7 9 20 16 14 18 26 24 19 9 9 11
11 12 10 8 7 9 8 6 6 5 14 14 24 23 19 21 20 25 24 14 11 9 11 22 10 15 17 14 22 15 13 5 4 8 13 14 17 17 15 14 20 11 15 16 13
12 12 8 8 6 7 7 5 6 14 15 18 17 17 12 19 17 28 24 14 12 12 15 15 10 11 17 14 13 16 16 7 7 8 9 19 12 18 23 17 15 12 16 15 11
17 7 9 3 5 5 7 6 7 9 13 14 19 13 14 18 6 11 8 19 15 19 12 11 1 12 17 7 15 21 20 16 3 7 5 8 18 5 22 8 14 13 16 9 8
7 5 3 0 3 6 5 5 6 7 10 13 12 13 16 19 13 7 14 14 17 17 18 6 10 20 19 10 14 16 17 13 7 4 3 6 15 4 6 19 17 12 12 11 8
5 5 5 3 3 7 4 3 5 8 7 8 13 12 15 17 16 8 12 5 21 19 18 14 6 10 13 8 13 9 13 11 11 9 2 1 2 14 6 13 5 8 11 16 16
4 2 3 1 4 4 4 4 1 5 7 5 7 12 12 15 11 11 13 11 12 10 13 9 6 4 10 13 13 12 14 16 7 10 5 1 3 10 12 12 12 23 15 16 12
4 2 4 3 4 4 4 3 1 4 8 6 7 7 14 11 7 14 14 12 12 12 12 8 4 6 8 7 14 17 16 12 12 7 5 4 1 12 3 2 18 17 14 13 14
2 2 1 5 3 6 6 2 5 5 5 7 10 9 13 15 14 4 16 15 18 9 6 6 6 5 3 8 9 9 16 15 11 7 8 5 1 11 13 17 15 15 15 15 14
4 4 4 2 3 5 6 8 7 5 5 10 6 9 14 15 15 13 18 19 19 9 13 10 7 5 14 12 6 8 9 7 15 12 8 14 5 10 12 16 11 12 13 14 14
3 3 2 3 1 2 1 5 4 6 9 10 9 14 14 15 14 19 20 18 18 16 14 11 6 15 16 10 14 5 7 11 16 10 11 5 1 13 10 13 13 13 13 12 13
3 1 5 2 5 3 3 6 9 9 6 11 14 15 15 16 19 20 18 19 19 18 13 8 4 10 4 14 10 3 7 5 7 5 3 6 9 11 15 14 11 9 10 12 13
Wind_Direction
2 353 351 350 347 342 339 338 338 335 332 330 328 326 325 321 311 300 279 259 255 81 323 272 273 247 236 248 236 231 246 248 242 242 251 268 270 157 263 257 251 228 200 94 71
357 352 349 345 342 340 340 336 332 330 329 328 327 324 324 323 307 290 300 89 111 115 266 261 258 243 236 235 235 233 240 238 252 250 250 253 261 262 208 222 256 198 152 115 148
359 355 346 341 345 343 337 333 329 325 322 320 322 321 322 318 297 68 98 76 39 346 264 270 253 255 240 233 233 229 241 241 249 254 260 272 269 274 212 236 226 230 201 186 198
28 15 356 347 337 329 323 319 315 314 314 314 316 318 317 299 295 80 162 145 255 297 286 242 246 249 243 240 233 244 239 243 250 265 270 259 271 258 275 226 252 240 189 204 194
360 347 339 331 324 318 316 313 312 313 311 310 312 319 322 296 259 288 188 240 256 266 263 263 245 247 246 243 242 240 247 248 244 247 257 267 266 272 255 270 279 272 276 186 183
334 335 330 325 321 320 318 317 316 313 310 306 306 313 288 271 277 321 316 293 270 265 260 247 252 252 257 249 243 248 250 253 250 249 238 250 255 256 245 249 268 276 268 264 246
325 330 330 331 326 325 324 318 309 307 306 297 297 293 271 256 291 290 301 287 287 282 266 257 250 249 254 253 252 255 256 261 248 236 244 239 250 239 249 240 239 240 251 251 251
330 335 337 336 330 328 321 312 302 300 296 289 291 269 262 278 289 277 277 287 287 278 274 274 268 243 243 259 265 239 247 246 239 249 238 231 249 238 236 241 234 231 222 235 248
333 341 341 333 329 325 315 303 290 279 271 270 249 222 277 314 292 323 310 302 309 290 277 269 259 262 240 235 243 243 232 229 245 239 232 216 247 244 243 236 236 230 223 220 219
338 342 338 333 330 319 314 291 272 254 237 241 228 282 219 306 306 302 287 287 273 279 276 269 250 247 246 215 217 220 225 235 243 222 233 230 238 234 237 234 250 253 229 222 216
346 345 340 335 325 310 312 315 13 136 349 291 284 289 290 280 300 302 298 286 264 265 262 276 244 229 231 229 228 236 233 228 230 238 248 224 239 233 224 236 239 226 214 208 221
338 339 335 327 323 320 299 34 34 310 301 285 262 258 259 294 301 304 313 282 250 255 252 284 245 228 240 240 232 245 239 241 246 249 310 210 287 279 234 237 225 236 216 236 199
328 330 327 329 322 292 319 36 5 7 293 291 219 250 335 288 301 308 319 263 263 247 255 270 253 230 231 240 234 225 239 238 241 86 14 244 257 276 257 252 250 230 207 205 204
330 326 330 324 292 327 42 8 359 27 287 104 40 68 293 322 300 322 320 299 72 246 253 238 258 240 219 237 238 232 220 236 242 199 203 242 255 252 266 254 264 273 264 239 205
335 328 325 322 316 310 359 356 337 171 315 28 4 351 339 336 331 335 311 122 207 242 284 277 281 230 222 220 234 235 236 223 216 253 226 238 256 250 255 264 271 226 239 222 206
326 325 327 272 228 298 353 321 282 233 268 339 359 331 337 2 347 333 323 262 222 220 259 270 266 269 232 218 219 218 126 135 174 207 239 230 233 263 232 227 236 236 221 155 116
317 314 300 311 321 346 317 263 263 270 346 358 335 324 341 358 349 347 329 283 223 275 321 315 298 318 282 201 205 141 160 144 181 210 234 207 224 235 264 203 226 235 168 122 111
314 308 249 249 347 320 292 267 263 7 359 338 330 331 357 16 353 341 339 313 214 239 262 298 300 315 246 213 176 162 177 169 189 206 239 219 231 243 236 256 201 130 110 106 118
310 254 250 141 296 307 277 254 24 357 341 334 320 351 352 8 47 347 311 8 6 357 335 308 109 280 280 165 162 171 195 206 208 234 253 201 236 342 208 124 103 122 113 121 149
302 236 167 96 279 279 270 269 355 8 338 329 345 356 341 355 351 348 10 340 354 350 339 345 315 178 274 157 184 195 187 215 245 232 217 243 198 161 226 130 141 182 151 134 118
261 232 100 280 287 252 250 6 342 338 338 333 340 334 349 342 330 334 19 286 355 342 334 329 300 308 207 130 208 199 207 203 238 262 351 167 271 143 242 120 119 160 94 51 46
263 264 99 299 238 227 269 359 105 333 307 350 313 341 341 339 322 6 6 9 2 334 345 351 313 286 299 254 219 214 202 210 209 241 231 158 254 24 14 149 153 80 63 64 52
263 44 136 230 264 259 95 275 249 321 338 344 324 336 330 343 341 337 351 1 357 350 360 346 5 324 297 322 208 216 227 218 227 261 299 293 197 103 110 122 75 75 67 59 42
22 344 179 206 188 303 5 7 315 125 303 314 302 3 341 338 331 271 329 350 343 8 340 291 285 342 318 288 347 295 208 211 229 245 233 220 220 148 57 61 59 60 51 44 32
3 255 9 178 301 337 309 297 291 343 8 319 320 346 351 324 326 332 339 335 331 310 354 6 309 356 292 283 350 328 327 305 221 227 252 131 214 37 87 78 61 51 51 38 31
137 276 229 276 261 296 138 302 344 322 351 317 332 341 318 310 339 326 323 315 312 303 332 338 309 314 297 277 159 200 280 349 317 352 304 148 143 84 125 98 67 47 44 32 24
303 296 281 278 243 270 25 341 323 321 302 320 331 315 314 333 327 304 286 270 264 281 291 315 313 320 324 359 353 359 2 227 246 121 309 27 109 123 86 78 61 54 41 32 15